Augusta, Maine, United States (04330)
Lat: 44.31N, Lon: 69.78W
Wx Zone: MEZ021
Local Info
Past Weather Observations for Wednesday, October 22, 2014

NOTE: This archive is for the closest National Weather Service station to Augusta. Information may differ from the station used for current weather conditions.

Click here for Long-term Archive

Time Weather Temperature Dewpoint Humidity Pressure Winds Precip Visibility
23:53
Overcast
45°F / 7°C 43°F / 6°C 93% 30.04 in
(1017 mb)
NE 21.9 mph
(NE 35 kph)
- 8SM
22:53
Overcast
Fog And Mist
45°F / 7°C 43°F / 6°C 93% 30.06 in
(1018 mb)
NE 21.9 mph
(NE 35 kph)
0.00 in
(0.00 mm)
6SM
21:53
Overcast
Fog And Mist
45°F / 7°C 43°F / 6°C 93% 30.06 in
(1018 mb)
NE 17.3 mph
(NE 28 kph)
- 5SM
20:53
Overcast
45°F / 7°C 43°F / 6°C 93% 30.09 in
(1019 mb)
NE 16.1 mph
(NE 26 kph)
- 10SM
19:53
Overcast
45°F / 7°C 43°F / 6°C 93% 30.09 in
(1019 mb)
NE 18.4 mph
(NE 30 kph)
- 10SM
19:10
Overcast
45°F / 7°C 43°F / 6°C 93% 30.09 in
(1019 mb)
NE 18.4 mph
(NE 30 kph)
- 10SM
18:53
Overcast
45°F / 7°C 43°F / 6°C 93% 30.09 in
(1019 mb)
NNE 18.4 mph
(NNE 30 kph)
- 10SM
17:53
Overcast
45°F / 7°C 43°F / 6°C 93% 30.12 in
(1020 mb)
NE 19.6 mph
(NE 32 kph)
- 10SM
16:53
Overcast
Fog And Mist
45°F / 7°C 43°F / 6°C 93% 30.12 in
(1020 mb)
NE 20.7 mph
(NE 33 kph)
0.00 in
(0.00 mm)
6SM
16:14
Overcast
45°F / 7°C 43°F / 6°C 93% 30.12 in
(1020 mb)
NE 21.9 mph
(NE 35 kph)
0.00 in
(0.00 mm)
7SM
16:07
Overcast
Fog And Mist
45°F / 7°C 43°F / 6°C 93% 30.12 in
(1020 mb)
NE 20.7 mph
(NE 33 kph)
0.00 in
(0.00 mm)
6SM
15:53
Overcast
Light Rain
46°F / 8°C 43°F / 6°C 87% 30.12 in
(1020 mb)
NE 19.6 mph
(NE 32 kph)
0.11 in
(2.79 mm)
4SM
15:42
Overcast
Light Rain
46°F / 8°C 43°F / 6°C 87% 30.12 in
(1020 mb)
NE 18.4 mph
(NE 30 kph)
0.10 in
(2.54 mm)
2 1/2SM
15:34
Overcast
Rain
46°F / 8°C 43°F / 6°C 87% 30.12 in
(1020 mb)
NE 24.2 mph
(NE 39 kph)
0.08 in
(2.03 mm)
2 1/2SM
15:16
Overcast
Rain
46°F / 8°C 45°F / 7°C 93% 30.12 in
(1020 mb)
NE 24.2 mph
(NE 39 kph)
0.06 in
(1.52 mm)
1 1/2SM
14:53
Overcast
Rain
46°F / 8°C 43°F / 6°C 87% 30.12 in
(1020 mb)
NE 19.6 mph
(NE 32 kph)
0.03 in
(0.76 mm)
1 1/2SM
14:44
Overcast
Light Rain
46°F / 8°C 43°F / 6°C 87% 30.12 in
(1020 mb)
NE 16.1 mph
(NE 26 kph)
0.01 in
(0.25 mm)
2 1/2SM
13:53
Overcast
Light Rain
46°F / 8°C 43°F / 6°C 87% 30.12 in
(1020 mb)
NE 20.7 mph
(NE 33 kph)
0.03 in
(0.76 mm)
10SM
13:46
Overcast
Light Rain
46°F / 8°C 43°F / 6°C 87% 30.12 in
(1020 mb)
NNE 20.7 mph
(NNE 33 kph)
0.03 in
(0.76 mm)
6SM
13:38
Overcast
Light Rain
46°F / 8°C 45°F / 7°C 93% 30.12 in
(1020 mb)
NNE 18.4 mph
(NNE 30 kph)
0.03 in
(0.76 mm)
5SM
12:53
Overcast
Light Rain
46°F / 8°C 43°F / 6°C 87% 30.12 in
(1020 mb)
N 19.6 mph
(N 32 kph)
0.04 in
(1.02 mm)
10SM
11:53
Overcast
Light Rain
48°F / 9°C 43°F / 6°C 82% 30.12 in
(1020 mb)
NNE 18.4 mph
(NNE 30 kph)
0.01 in
(0.25 mm)
7SM
11:43
Overcast
Light Rain
48°F / 9°C 43°F / 6°C 82% 30.15 in
(1021 mb)
NNE 18.4 mph
(NNE 30 kph)
0.00 in
(0.00 mm)
10SM
11:18
Overcast
46°F / 8°C 43°F / 6°C 87% 30.15 in
(1021 mb)
NE 17.3 mph
(NE 28 kph)
- 10SM
10:53
Overcast
46°F / 8°C 43°F / 6°C 87% 30.15 in
(1021 mb)
NNE 18.4 mph
(NNE 30 kph)
- 10SM
10:18
Overcast
45°F / 7°C 43°F / 6°C 93% 30.18 in
(1022 mb)
NE 18.4 mph
(NE 30 kph)
- 10SM
09:53
Overcast
45°F / 7°C 43°F / 6°C 93% 30.18 in
(1022 mb)
NNE 16.1 mph
(NNE 26 kph)
0.00 in
(0.00 mm)
10SM
08:53
Overcast
Light Rain
45°F / 7°C 43°F / 6°C 93% 30.18 in
(1022 mb)
NNE 16.1 mph
(NNE 26 kph)
0.02 in
(0.51 mm)
7SM
07:53
Overcast
Light Rain
45°F / 7°C 43°F / 6°C 93% 30.18 in
(1022 mb)
NNE 12.7 mph
(NNE 20 kph)
0.01 in
(0.25 mm)
8SM
06:53
Overcast
Light Rain
45°F / 7°C 43°F / 6°C 93% 30.18 in
(1022 mb)
N 12.7 mph
(N 20 kph)
0.00 in
(0.00 mm)
9SM
05:53
Overcast
45°F / 7°C 43°F / 6°C 93% 30.15 in
(1021 mb)
N 12.7 mph
(N 20 kph)
0.00 in
(0.00 mm)
10SM
05:37
Overcast
45°F / 7°C 43°F / 6°C 93% 30.15 in
(1021 mb)
NNE 12.7 mph
(NNE 20 kph)
0.00 in
(0.00 mm)
10SM
04:53
Overcast
45°F / 7°C 43°F / 6°C 93% 30.15 in
(1021 mb)
NNE 11.5 mph
(NNE 19 kph)
0.01 in
(0.25 mm)
9SM
03:53
Overcast
45°F / 7°C 43°F / 6°C 93% 30.15 in
(1021 mb)
NNE 11.5 mph
(NNE 19 kph)
- 9SM
02:53
Overcast
45°F / 7°C 43°F / 6°C 93% 30.12 in
(1020 mb)
NE 13.8 mph
(NE 22 kph)
0.01 in
(0.25 mm)
9SM
01:53
Overcast
Light Rain
45°F / 7°C 43°F / 6°C 93% 30.12 in
(1020 mb)
NE 13.8 mph
(NE 22 kph)
0.06 in
(1.52 mm)
6SM
00:53
Overcast
Light Rain
45°F / 7°C 43°F / 6°C 93% 30.12 in
(1020 mb)
NNE 12.7 mph
(NNE 20 kph)
0.03 in
(0.76 mm)
6SM
Time Weather Temperature Dewpoint Humidity Pressure Winds Precip Visibility


Weather for websites

WeatherForYou.com, LLC is not responsible for any damages or problems caused by this service. Current weather conditions are obtained from the closest station including government and personal stations which may have varying degrees of accuracy. Weather forecasts are derived from the NOAA NDFD. Like all things, this site belongs to Jesus Christ... He just trusts me to maintain it. If you have any questions or comments email webmaster@weatherforyou.com

Copyright © 2014, WeatherForYou.com LLC. All rights reserved.